Overview Statistics Trail Chart Weather Telemetry Raw packets
 

This is the latest recevied weather packets stored in our database for station/object CT4TX-11. If no packets are shown the sender has not sent any weather packets the latest 10 day(s).

<< 13 14 15 16 17 18 19 >>
Time Temp. Humidity Pressure Rain* Wind** Luminosity Snow
1788295873 28.89° C 44% 1008.1 hPa - - - -
1788294973 29.44° C 44% 1008 hPa - - - -
1788294073 29.44° C 44% 1007.7 hPa - - - -
1788293173 28.89° C 44% 1007.7 hPa - - - -
1788292272 29.44° C 43% 1007.6 hPa - - - -
1788291372 29.44° C 43% 1007.5 hPa - - - -
1788290487 29.44° C 42% 1007.3 hPa - - - -
1788289572 30.56° C 40% 1007.2 hPa - - - -
1788288672 30.56° C 40% 1007.2 hPa - - - -
1788287771 30.56° C 40% 1007.2 hPa - - - -
1788286871 30.56° C 40% 1007.2 hPa - - - -
1788285971 30° C 40% 1007.2 hPa - - - -
1788285071 30.56° C 40% 1007.1 hPa - - - -
1788284171 30.56° C 41% 1006.9 hPa - - - -
1788283270 29.44° C 43% 1006.8 hPa - - - -
1788282370 29.44° C 43% 1006.6 hPa - - - -
1788281470 29.44° C 43% 1006.5 hPa - - - -
1788280570 29.44° C 44% 1006.3 hPa - - - -
1788279669 29.44° C 44% 1006.1 hPa - - - -
1788278769 29.44° C 44% 1006 hPa - - - -
1788277873 29.44° C 44% 1005.9 hPa - - - -
1788276973 29.44° C 45% 1005.9 hPa - - - -
1788276073 29.44° C 45% 1005.8 hPa - - - -
1788275173 29.44° C 44% 1005.8 hPa - - - -
1788274272 29.44° C 44% 1005.7 hPa - - - -

* Rain since midnight (hover to see other rain measurements)
** Current wind speed in m/s (hover to see current wind gust speed)